Regional Weather Roundup
Issued by NWS Kansas City/Pleasant Hill, MO

Home | Current Version | Previous Version | Text Only | Print | Product List | Glossary On
Versions: 1 2 3 4 5 6 7 8 9 10 11 12 13 14 15 16 17 18 19 20 21 22 23 24 25 26 27
000
ASUS43 KEAX 260610
RWREAX

WEATHER ROUNDUP FOR EASTERN KANSAS AND NORTHWEST MISSOURI
NATIONAL WEATHER SERVICE KANSAS CITY/PLEASANT HILL MO
100 AM CDT FRI AUG 26 2016

KSZ040-057-103>105-MOZ028-029-037-043-260700-
...KANSAS CITY METROPOLITAN AREA...

CITY           SKY/WX    TMP DP  RH WIND       PRES   REMARKS
K.C. INTL      MOCLDY    70  63  78 NE9       30.10F
6HR MIN TEMP:  70; 6HR MAX TEMP:  76;

K.C. DOWNTOWN  CLOUDY    73  67  81 NE6       30.10R
6HR MIN TEMP:  73; 6HR MAX TEMP:  79; 6HR PCP: TRACE;

LEES SUMMIT    TSTM      72  70  93 E5        30.10F FOG
6HR MIN TEMP:  72; 6HR MAX TEMP:  79; 6HR PCP:  0.01;

OLATHE - IXD   TSTM      71  70  96 E13G21    30.09S VSB 1
6HR MIN TEMP:  73; 6HR MAX TEMP:  78; 6HR PCP:  0.15;

OLATHE - OJC   TSTM      71  70  96 E7        30.11R FOG
6HR MIN TEMP:  72; 6HR MAX TEMP:  80; 6HR PCP: TRACE;

LAWRENCE       LGT RAIN  71  67  87 N5        30.09S

$$

MOZ001>008-011>017-020>025-030>033-038>040-044>046-053-054-260700-
...NORTHERN AND CENTRAL MISSOURI...

CITY           SKY/WX    TMP DP  RH WIND       PRES   REMARKS
ST. JOSEPH     MOCLDY    67  63  87 N6        30.11F FOG
6HR MIN TEMP:  66; 6HR MAX TEMP:  77;

WHITEMAN AFB   PTCLDY    72  72 100 NE7       30.07F
6HR MIN TEMP:  71; 6HR MAX TEMP:  82; 6HR PCP:  0.60;

CLINTON        NOT AVBL
SEDALIA        FAIR      73  70  90 N9        30.07F
6HR MIN TEMP:  73; 6HR MAX TEMP:  80; 6HR PCP:  0.02;

WARSAW         NOT AVBL
CHILLICOTHE      N/A     69  65  86 VRB3      30.12
6HR MIN TEMP:  69; 6HR MAX TEMP:  75;

KIRKSVILLE     CLOUDY    68  65  90 NE6       30.12S
6HR MIN TEMP:  67; 6HR MAX TEMP:  74;


$$

MOZ041-047>049-056>058-063>065-088>090-097-260700-
...EASTERN AND SOUTHERN MISSOURI...

CITY           SKY/WX    TMP DP  RH WIND       PRES   REMARKS
ST. LOUIS INTL MOCLDY    77  69  76 E3        30.08F
6HR MIN TEMP:  77; 6HR MAX TEMP:  90;

SPIRIT OF STL  FAIR      78  75  90 E5        30.06F
COLUMBIA       FAIR      75  73  93 CALM      30.09R
JEFFERSON CITY FAIR      75  72  90 CALM      30.07F
ROLLA          FAIR      71  69  93 SE3       30.09F
OSAGE BEACH    FAIR      70  69  97 CALM      30.09F
SPRINGFIELD    FAIR      73  67  81 S5        30.09F
JOPLIN         FAIR      71  67  87 SE5       30.08S
WEST PLAINS    FAIR      78  71  79 W6        30.12F

$$

IAZ060-094-KSZ022-034>040-054-083-096-NEZ052-066-093-260700-
...KANSAS...SOUTHEAST NEBRASKA AND IOWA...

CITY           SKY/WX    TMP DP  RH WIND       PRES   REMARKS
TOPEKA         CLOUDY    69  64  84 N6        30.10R
6HR MIN TEMP:  68; 6HR MAX TEMP:  77;

MANHATTAN      FAIR      67  62  84 NE7       30.11S
EMPORIA        CLOUDY    71  67  87 N8        30.09R
CHANUTE        MOCLDY    74  69  85 SE7       30.06F
WICHITA        CLOUDY    73  67  81 NE8       30.08R
OMAHA          FAIR      63  59  87 CALM      30.15S
LINCOLN        FAIR      60  58  92 N5        30.17S
FALLS CITY     FAIR      66  61  84 NE3       30.13S
LAMONI         FAIR      63  62  97 N3        30.13F
DES MOINES     FAIR      65  63  93 CALM      30.13R

$$





USA.gov is the U.S. government's official web portal to all federal, state and local government web resources and services.